contact:dominique.lefevre@mio.osupytheas.fr, maurice.libes@osupytheas.fr, didier.mallarino@osupytheas.fr
Project:EMSO http://www.emso-fr.org/EMSO-France
Depth: 2436.0 m
Title:EMSO Ligure Ouest : Data MII capteur MICROCAT
DateTime_Computer,Latitude,Longitude,Temperature,Conductivity,Pressure,DateTime_Instrument
DateTime_Computer,Latitude,Longitude,degC,S m-1,dbar,DateTime_Instrument
2023-08-14T00:00:03Z,42.805,6.029,13.3029,4.60094,2470.67,2023-8-14T02:02:22Z
2023-08-14T00:03:06Z,42.805,6.029,13.3033,4.60091,2470.67,2023-8-14T02:05:25Z
2023-08-14T00:06:09Z,42.805,6.029,13.3029,4.60093,2470.717,2023-8-14T02:08:28Z
2023-08-14T00:09:12Z,42.805,6.029,13.3031,4.60097,2470.693,2023-8-14T02:11:31Z
2023-08-14T00:12:15Z,42.805,6.029,13.3033,4.60093,2470.717,2023-8-14T02:14:34Z
2023-08-14T00:15:18Z,42.805,6.029,13.3032,4.60097,2470.684,2023-8-14T02:17:37Z
2023-08-14T00:18:21Z,42.805,6.029,13.3029,4.60097,2470.67,2023-8-14T02:20:40Z
2023-08-14T00:21:24Z,42.805,6.029,13.3030,4.60093,2470.684,2023-8-14T02:23:43Z
2023-08-14T00:24:27Z,42.805,6.029,13.3033,4.60092,2470.693,2023-8-14T02:26:46Z
2023-08-14T00:27:30Z,42.805,6.029,13.3027,4.60095,2470.693,2023-8-14T02:29:50Z
2023-08-14T00:30:33Z,42.805,6.029,13.3029,4.60092,2470.684,2023-8-14T02:32:53Z
2023-08-14T00:33:37Z,42.805,6.029,13.3029,4.60090,2470.646,2023-8-14T02:35:56Z
2023-08-14T00:36:40Z,42.805,6.029,13.3027,4.60091,2470.693,2023-8-14T02:38:59Z
2023-08-14T00:39:43Z,42.805,6.029,13.3028,4.60092,2470.717,2023-8-14T02:42:02Z
2023-08-14T00:42:46Z,42.805,6.029,13.3029,4.60091,2470.67,2023-8-14T02:45:05Z
2023-08-14T00:45:49Z,42.805,6.029,13.3031,4.60091,2470.707,2023-8-14T02:48:08Z
2023-08-14T00:48:52Z,42.805,6.029,13.3030,4.60091,2470.67,2023-8-14T02:51:11Z
2023-08-14T00:51:55Z,42.805,6.029,13.3028,4.60090,2470.707,2023-8-14T02:54:14Z
2023-08-14T00:54:58Z,42.805,6.029,13.3029,4.60089,2470.67,2023-8-14T02:57:17Z
2023-08-14T00:58:01Z,42.805,6.029,13.3028,4.60092,2470.67,2023-8-14T03:00:20Z
2023-08-14T01:01:04Z,42.805,6.029,13.3025,4.60092,2470.693,2023-8-14T03:03:24Z
2023-08-14T01:04:07Z,42.805,6.029,13.3033,4.60089,2470.693,2023-8-14T03:06:27Z
2023-08-14T01:07:10Z,42.805,6.029,13.3028,4.60094,2470.693,2023-8-14T03:09:30Z
2023-08-14T01:10:14Z,42.805,6.029,13.3030,4.60092,2470.693,2023-8-14T03:12:33Z
2023-08-14T01:13:17Z,42.805,6.029,13.3028,4.60089,2470.67,2023-8-14T03:15:36Z
2023-08-14T01:16:20Z,42.805,6.029,13.3028,4.60090,2470.684,2023-8-14T03:18:39Z
2023-08-14T01:19:23Z,42.805,6.029,13.3027,4.60092,2470.707,2023-8-14T03:21:42Z
2023-08-14T01:22:26Z,42.805,6.029,13.3029,4.60090,2470.67,2023-8-14T03:24:45Z
2023-08-14T01:25:29Z,42.805,6.029,13.3029,4.60094,2470.646,2023-8-14T03:27:48Z
2023-08-14T01:28:32Z,42.805,6.029,13.3031,4.60098,2470.707,2023-8-14T03:30:51Z
2023-08-14T01:31:35Z,42.805,6.029,13.3031,4.60089,2470.707,2023-8-14T03:33:54Z
2023-08-14T01:34:38Z,42.805,6.029,13.3030,4.60089,2470.693,2023-8-14T03:36:57Z
2023-08-14T01:37:41Z,42.805,6.029,13.3032,4.60089,2470.684,2023-8-14T03:40:00Z
2023-08-14T01:40:44Z,42.805,6.029,13.3029,4.60091,2470.684,2023-8-14T03:43:04Z
2023-08-14T01:43:47Z,42.805,6.029,13.3028,4.60089,2470.693,2023-8-14T03:46:07Z
2023-08-14T01:46:51Z,42.805,6.029,13.3032,4.60091,2470.684,2023-8-14T03:49:10Z
2023-08-14T01:49:54Z,42.805,6.029,13.3030,4.60092,2470.67,2023-8-14T03:52:13Z
2023-08-14T01:52:57Z,42.805,6.029,13.3031,4.60092,2470.693,2023-8-14T03:55:16Z
2023-08-14T01:56:00Z,42.805,6.029,13.3030,4.60089,2470.646,2023-8-14T03:58:19Z
2023-08-14T01:59:03Z,42.805,6.029,13.3030,4.60094,2470.67,2023-8-14T04:01:22Z
2023-08-14T02:02:06Z,42.805,6.029,13.3029,4.60097,2470.646,2023-8-14T04:04:25Z
2023-08-14T02:05:09Z,42.805,6.029,13.3031,4.60091,2470.656,2023-8-14T04:07:28Z
2023-08-14T02:08:12Z,42.805,6.029,13.3026,4.60089,2470.661,2023-8-14T04:10:31Z
2023-08-14T02:11:15Z,42.805,6.029,13.3032,4.60094,2470.661,2023-8-14T04:13:34Z
2023-08-14T02:14:18Z,42.805,6.029,13.3029,4.60087,2470.67,2023-8-14T04:16:37Z
2023-08-14T02:17:21Z,42.805,6.029,13.3028,4.60088,2470.656,2023-8-14T04:19:41Z
2023-08-14T02:20:24Z,42.805,6.029,13.3030,4.60089,2470.684,2023-8-14T04:22:44Z
2023-08-14T02:23:27Z,42.805,6.029,13.3027,4.60094,2470.661,2023-8-14T04:25:47Z
2023-08-14T02:26:31Z,42.805,6.029,13.3029,4.60087,2470.646,2023-8-14T04:28:50Z
2023-08-14T02:29:34Z,42.805,6.029,13.3026,4.60086,2470.707,2023-8-14T04:31:53Z
2023-08-14T02:32:37Z,42.805,6.029,13.3026,4.60087,2470.67,2023-8-14T04:34:56Z
2023-08-14T02:35:40Z,42.805,6.029,13.3029,4.60087,2470.67,2023-8-14T04:37:59Z
2023-08-14T02:38:43Z,42.805,6.029,13.3026,4.60089,2470.684,2023-8-14T04:41:02Z
2023-08-14T02:41:46Z,42.805,6.029,13.3025,4.60087,2470.693,2023-8-14T04:44:05Z
2023-08-14T02:44:49Z,42.805,6.029,13.3031,4.60086,2470.693,2023-8-14T04:47:08Z
2023-08-14T02:47:52Z,42.805,6.029,13.3028,4.60086,2470.693,2023-8-14T04:50:11Z
2023-08-14T02:50:55Z,42.805,6.029,13.3032,4.60087,2470.73,2023-8-14T04:53:14Z
2023-08-14T02:53:58Z,42.805,6.029,13.3028,4.60088,2470.646,2023-8-14T04:56:18Z
2023-08-14T02:57:01Z,42.805,6.029,13.3027,4.60087,2470.693,2023-8-14T04:59:21Z
2023-08-14T03:00:05Z,42.805,6.029,13.3029,4.60087,2470.693,2023-8-14T05:02:24Z
2023-08-14T03:03:08Z,42.805,6.029,13.3027,4.60087,2470.693,2023-8-14T05:05:27Z
2023-08-14T03:06:11Z,42.805,6.029,13.3031,4.60087,2470.693,2023-8-14T05:08:30Z
2023-08-14T03:09:14Z,42.805,6.029,13.3028,4.60092,2470.67,2023-8-14T05:11:33Z
2023-08-14T03:12:17Z,42.805,6.029,13.3027,4.60085,2470.693,2023-8-14T05:14:36Z
2023-08-14T03:15:20Z,42.805,6.029,13.3026,4.60085,2470.707,2023-8-14T05:17:39Z
2023-08-14T03:18:23Z,42.805,6.029,13.3026,4.60087,2470.73,2023-8-14T05:20:42Z
2023-08-14T03:21:26Z,42.805,6.029,13.3026,4.60088,2470.73,2023-8-14T05:23:45Z
2023-08-14T03:24:29Z,42.805,6.029,13.3024,4.60085,2470.693,2023-8-14T05:26:48Z
2023-08-14T03:27:32Z,42.805,6.029,13.3027,4.60086,2470.717,2023-8-14T05:29:52Z
2023-08-14T03:30:35Z,42.805,6.029,13.3029,4.60087,2470.717,2023-8-14T05:32:55Z
2023-08-14T03:33:38Z,42.805,6.029,13.3026,4.60090,2470.717,2023-8-14T05:35:58Z
2023-08-14T03:36:42Z,42.805,6.029,13.3027,4.60085,2470.73,2023-8-14T05:39:01Z
2023-08-14T03:39:45Z,42.805,6.029,13.3027,4.60087,2470.717,2023-8-14T05:42:04Z
2023-08-14T03:42:48Z,42.805,6.029,13.3026,4.60085,2470.717,2023-8-14T05:45:07Z
2023-08-14T03:45:51Z,42.805,6.029,13.3031,4.60087,2470.717,2023-8-14T05:48:10Z
2023-08-14T03:48:54Z,42.805,6.029,13.3024,4.60087,2470.693,2023-8-14T05:51:13Z
2023-08-14T03:51:57Z,42.805,6.029,13.3029,4.60088,2470.707,2023-8-14T05:54:16Z
2023-08-14T03:55:00Z,42.805,6.029,13.3026,4.60087,2470.693,2023-8-14T05:57:19Z
2023-08-14T03:58:03Z,42.805,6.029,13.3031,4.60088,2470.74,2023-8-14T06:00:22Z
2023-08-14T04:01:06Z,42.805,6.029,13.3029,4.60088,2470.73,2023-8-14T06:03:25Z
2023-08-14T04:04:09Z,42.805,6.029,13.3029,4.60090,2470.717,2023-8-14T06:06:29Z
2023-08-14T04:07:12Z,42.805,6.029,13.3030,4.60090,2470.74,2023-8-14T06:09:32Z
2023-08-14T04:10:15Z,42.805,6.029,13.3029,4.60089,2470.707,2023-8-14T06:12:35Z
2023-08-14T04:13:19Z,42.805,6.029,13.3026,4.60089,2470.74,2023-8-14T06:15:38Z
2023-08-14T04:16:22Z,42.805,6.029,13.3028,4.60094,2470.74,2023-8-14T06:18:41Z
2023-08-14T04:19:25Z,42.805,6.029,13.3027,4.60089,2470.74,2023-8-14T06:21:44Z
2023-08-14T04:22:28Z,42.805,6.029,13.3028,4.60088,2470.74,2023-8-14T06:24:47Z
2023-08-14T04:25:31Z,42.805,6.029,13.3025,4.60090,2470.74,2023-8-14T06:27:50Z
2023-08-14T04:28:34Z,42.805,6.029,13.3029,4.60091,2470.754,2023-8-14T06:30:53Z
2023-08-14T04:31:37Z,42.805,6.029,13.3029,4.60087,2470.717,2023-8-14T06:33:56Z
2023-08-14T04:34:40Z,42.805,6.029,13.3026,4.60087,2470.754,2023-8-14T06:36:59Z
2023-08-14T04:37:43Z,42.805,6.029,13.3029,4.60086,2470.777,2023-8-14T06:40:02Z
2023-08-14T04:40:46Z,42.805,6.029,13.3024,4.60087,2470.763,2023-8-14T06:43:06Z
2023-08-14T04:43:49Z,42.805,6.029,13.3025,4.60087,2470.73,2023-8-14T06:46:09Z
2023-08-14T04:46:52Z,42.805,6.029,13.3026,4.60087,2470.717,2023-8-14T06:49:12Z
2023-08-14T04:49:56Z,42.805,6.029,13.3027,4.60087,2470.763,2023-8-14T06:52:15Z
2023-08-14T04:52:59Z,42.805,6.029,13.3029,4.60085,2470.763,2023-8-14T06:55:18Z
2023-08-14T04:56:02Z,42.805,6.029,13.3029,4.60089,2470.754,2023-8-14T06:58:21Z
2023-08-14T04:59:05Z,42.805,6.029,13.3026,4.60089,2470.74,2023-8-14T07:01:24Z
2023-08-14T05:02:08Z,42.805,6.029,13.3027,4.60088,2470.717,2023-8-14T07:04:27Z
2023-08-14T05:05:11Z,42.805,6.029,13.3027,4.60088,2470.717,2023-8-14T07:07:30Z
2023-08-14T05:08:14Z,42.805,6.029,13.3029,4.60088,2470.754,2023-8-14T07:10:33Z
2023-08-14T05:11:17Z,42.805,6.029,13.3029,4.60087,2470.74,2023-8-14T07:13:36Z
2023-08-14T05:14:20Z,42.805,6.029,13.3031,4.60087,2470.754,2023-8-14T07:16:39Z
2023-08-14T05:17:23Z,42.805,6.029,13.3029,4.60088,2470.726,2023-8-14T07:19:43Z
2023-08-14T05:20:26Z,42.805,6.029,13.3026,4.60089,2470.754,2023-8-14T07:22:46Z
2023-08-14T05:23:29Z,42.805,6.029,13.3025,4.60087,2470.717,2023-8-14T07:25:49Z
2023-08-14T05:26:33Z,42.805,6.029,13.3026,4.60087,2470.787,2023-8-14T07:28:52Z
2023-08-14T05:29:36Z,42.805,6.029,13.3026,4.60092,2470.754,2023-8-14T07:31:55Z
2023-08-14T05:32:39Z,42.805,6.029,13.3024,4.60087,2470.763,2023-8-14T07:34:58Z
2023-08-14T05:35:42Z,42.805,6.029,13.3024,4.60090,2470.777,2023-8-14T07:38:01Z
2023-08-14T05:38:45Z,42.805,6.029,13.3028,4.60087,2470.763,2023-8-14T07:41:04Z
2023-08-14T05:41:48Z,42.805,6.029,13.3031,4.60089,2470.717,2023-8-14T07:44:07Z
2023-08-14T05:44:51Z,42.805,6.029,13.3029,4.60087,2470.777,2023-8-14T07:47:10Z
2023-08-14T05:47:54Z,42.805,6.029,13.3027,4.60087,2470.763,2023-8-14T07:50:13Z
2023-08-14T05:50:57Z,42.805,6.029,13.3029,4.60091,2470.74,2023-8-14T07:53:16Z
2023-08-14T05:54:00Z,42.805,6.029,13.3027,4.60087,2470.787,2023-8-14T07:56:20Z
2023-08-14T05:57:03Z,42.805,6.029,13.3029,4.60089,2470.763,2023-8-14T07:59:23Z
2023-08-14T06:00:06Z,42.805,6.029,13.3024,4.60089,2470.787,2023-8-14T08:02:26Z
2023-08-14T06:03:10Z,42.805,6.029,13.3029,4.60087,2470.763,2023-8-14T08:05:29Z
2023-08-14T06:06:13Z,42.805,6.029,13.3028,4.60087,2470.763,2023-8-14T08:08:32Z
2023-08-14T06:09:16Z,42.805,6.029,13.3027,4.60088,2470.74,2023-8-14T08:11:35Z
2023-08-14T06:12:19Z,42.805,6.029,13.3026,4.60090,2470.717,2023-8-14T08:14:38Z
2023-08-14T06:15:22Z,42.805,6.029,13.3025,4.60087,2470.763,2023-8-14T08:17:41Z
2023-08-14T06:18:25Z,42.805,6.029,13.3028,4.60088,2470.754,2023-8-14T08:20:44Z
2023-08-14T06:21:28Z,42.805,6.029,13.3024,4.60091,2470.8,2023-8-14T08:23:47Z
2023-08-14T06:24:31Z,42.805,6.029,13.3029,4.60091,2470.73,2023-8-14T08:26:50Z
2023-08-14T06:27:34Z,42.805,6.029,13.3027,4.60088,2470.74,2023-8-14T08:29:53Z
2023-08-14T06:30:36Z,42.805,6.029,13.3031,4.60089,2470.74,2023-8-14T08:32:55Z
2023-08-14T06:33:39Z,42.805,6.029,13.3029,4.60089,2470.763,2023-8-14T08:35:58Z
2023-08-14T06:36:42Z,42.805,6.029,13.3029,4.60090,2470.777,2023-8-14T08:39:01Z
2023-08-14T06:39:45Z,42.805,6.029,13.3033,4.60091,2470.777,2023-8-14T08:42:04Z
2023-08-14T06:42:48Z,42.805,6.029,13.3035,4.60095,2470.74,2023-8-14T08:45:07Z
2023-08-14T06:45:51Z,42.805,6.029,13.3036,4.60098,2470.74,2023-8-14T08:48:10Z
2023-08-14T06:48:54Z,42.805,6.029,13.3038,4.60103,2470.787,2023-8-14T08:51:13Z
2023-08-14T06:51:57Z,42.805,6.029,13.3032,4.60091,2470.74,2023-8-14T08:54:17Z
2023-08-14T06:55:00Z,42.805,6.029,13.3031,4.60097,2470.717,2023-8-14T08:57:20Z
2023-08-14T06:58:04Z,42.805,6.029,13.3036,4.60094,2470.754,2023-8-14T09:00:23Z
2023-08-14T07:01:07Z,42.805,6.029,13.3043,4.60107,2470.763,2023-8-14T09:03:26Z
2023-08-14T07:04:10Z,42.805,6.029,13.3051,4.60114,2470.74,2023-8-14T09:06:29Z
2023-08-14T07:07:13Z,42.805,6.029,13.3051,4.60117,2470.74,2023-8-14T09:09:32Z
2023-08-14T07:10:16Z,42.805,6.029,13.3046,4.60121,2470.717,2023-8-14T09:12:35Z
2023-08-14T07:13:19Z,42.805,6.029,13.3059,4.60117,2470.717,2023-8-14T09:15:38Z
2023-08-14T07:16:22Z,42.805,6.029,13.3046,4.60129,2470.754,2023-8-14T09:18:41Z
2023-08-14T07:19:25Z,42.805,6.029,13.3054,4.60120,2470.763,2023-8-14T09:21:44Z
2023-08-14T07:22:28Z,42.805,6.029,13.3050,4.60127,2470.754,2023-8-14T09:24:47Z
2023-08-14T07:25:31Z,42.805,6.029,13.3052,4.60130,2470.717,2023-8-14T09:27:51Z
2023-08-14T07:28:34Z,42.805,6.029,13.3046,4.60144,2470.777,2023-8-14T09:30:54Z
2023-08-14T07:31:37Z,42.805,6.029,13.3039,4.60140,2470.754,2023-8-14T09:33:57Z
2023-08-14T07:34:41Z,42.805,6.029,13.3048,4.60114,2470.763,2023-8-14T09:37:00Z
2023-08-14T07:37:44Z,42.805,6.029,13.3043,4.60133,2470.74,2023-8-14T09:40:03Z
2023-08-14T07:40:47Z,42.805,6.029,13.3044,4.60148,2470.74,2023-8-14T09:43:06Z
2023-08-14T07:43:50Z,42.805,6.029,13.3035,4.60134,2470.717,2023-8-14T09:46:09Z
2023-08-14T07:46:53Z,42.805,6.029,13.3036,4.60143,2470.717,2023-8-14T09:49:12Z
2023-08-14T07:49:56Z,42.805,6.029,13.3046,4.60143,2470.717,2023-8-14T09:52:15Z
2023-08-14T07:52:59Z,42.805,6.029,13.3037,4.60134,2470.717,2023-8-14T09:55:18Z
2023-08-14T07:56:02Z,42.805,6.029,13.3041,4.60157,2470.693,2023-8-14T09:58:21Z
2023-08-14T07:59:05Z,42.805,6.029,13.3049,4.60128,2470.717,2023-8-14T10:01:24Z
2023-08-14T08:02:08Z,42.805,6.029,13.3043,4.60129,2470.717,2023-8-14T10:04:28Z
2023-08-14T08:05:11Z,42.805,6.029,13.3038,4.60120,2470.717,2023-8-14T10:07:31Z
2023-08-14T08:08:14Z,42.805,6.029,13.3042,4.60154,2470.74,2023-8-14T10:10:34Z
2023-08-14T08:11:18Z,42.805,6.029,13.3041,4.60135,2470.693,2023-8-14T10:13:37Z
2023-08-14T08:14:21Z,42.805,6.029,13.3038,4.60130,2470.717,2023-8-14T10:16:40Z
2023-08-14T08:17:24Z,42.805,6.029,13.3041,4.60137,2470.73,2023-8-14T10:19:43Z
2023-08-14T08:20:27Z,42.805,6.029,13.3044,4.60139,2470.707,2023-8-14T10:22:46Z
2023-08-14T08:23:30Z,42.805,6.029,13.3039,4.60132,2470.707,2023-8-14T10:25:49Z
2023-08-14T08:26:33Z,42.805,6.029,13.3041,4.60138,2470.707,2023-8-14T10:28:52Z
2023-08-14T08:29:36Z,42.805,6.029,13.3053,4.60133,2470.717,2023-8-14T10:31:55Z
2023-08-14T08:32:39Z,42.805,6.029,13.3046,4.60148,2470.707,2023-8-14T10:34:58Z
2023-08-14T08:35:42Z,42.805,6.029,13.3048,4.60146,2470.693,2023-8-14T10:38:01Z
2023-08-14T08:38:45Z,42.805,6.029,13.3046,4.60151,2470.693,2023-8-14T10:41:04Z
2023-08-14T08:41:48Z,42.805,6.029,13.3047,4.60149,2470.73,2023-8-14T10:44:07Z
2023-08-14T08:44:51Z,42.805,6.029,13.3046,4.60145,2470.693,2023-8-14T10:47:10Z
2023-08-14T08:47:54Z,42.805,6.029,13.3051,4.60156,2470.693,2023-8-14T10:50:13Z
2023-08-14T08:50:57Z,42.805,6.029,13.3057,4.60150,2470.693,2023-8-14T10:53:16Z
2023-08-14T08:54:00Z,42.805,6.029,13.3041,4.60133,2470.684,2023-8-14T10:56:20Z
2023-08-14T08:57:03Z,42.805,6.029,13.3039,4.60121,2470.67,2023-8-14T10:59:23Z
2023-08-14T09:00:06Z,42.805,6.029,13.3056,4.60141,2470.707,2023-8-14T11:02:26Z
2023-08-14T09:03:10Z,42.805,6.029,13.3043,4.60129,2470.67,2023-8-14T11:05:29Z
2023-08-14T09:06:13Z,42.805,6.029,13.3043,4.60120,2470.693,2023-8-14T11:08:32Z
2023-08-14T09:09:16Z,42.805,6.029,13.3041,4.60129,2470.67,2023-8-14T11:11:35Z
2023-08-14T09:12:19Z,42.805,6.029,13.3034,4.60117,2470.684,2023-8-14T11:14:38Z
2023-08-14T09:15:22Z,42.805,6.029,13.3045,4.60137,2470.693,2023-8-14T11:17:41Z
2023-08-14T09:18:25Z,42.805,6.029,13.3036,4.60126,2470.693,2023-8-14T11:20:44Z
2023-08-14T09:21:28Z,42.805,6.029,13.3040,4.60130,2470.646,2023-8-14T11:23:47Z
2023-08-14T09:24:31Z,42.805,6.029,13.3042,4.60132,2470.67,2023-8-14T11:26:50Z
2023-08-14T09:27:34Z,42.805,6.029,13.3038,4.60135,2470.67,2023-8-14T11:29:54Z
2023-08-14T09:30:37Z,42.805,6.029,13.3051,4.60141,2470.67,2023-8-14T11:32:57Z
2023-08-14T09:33:40Z,42.805,6.029,13.3046,4.60145,2470.67,2023-8-14T11:36:00Z
2023-08-14T09:36:44Z,42.805,6.029,13.3039,4.60137,2470.67,2023-8-14T11:39:03Z
2023-08-14T09:39:47Z,42.805,6.029,13.3034,4.60132,2470.67,2023-8-14T11:42:06Z
2023-08-14T09:42:50Z,42.805,6.029,13.3041,4.60132,2470.661,2023-8-14T11:45:09Z
2023-08-14T09:45:53Z,42.805,6.029,13.3042,4.60117,2470.684,2023-8-14T11:48:12Z
2023-08-14T09:48:56Z,42.805,6.029,13.3036,4.60117,2470.646,2023-8-14T11:51:15Z
2023-08-14T09:51:59Z,42.805,6.029,13.3041,4.60122,2470.646,2023-8-14T11:54:18Z
2023-08-14T09:55:02Z,42.805,6.029,13.3044,4.60134,2470.646,2023-8-14T11:57:21Z
2023-08-14T09:58:05Z,42.805,6.029,13.3036,4.60116,2470.693,2023-8-14T12:00:24Z
2023-08-14T10:01:08Z,42.805,6.029,13.3039,4.60140,2470.637,2023-8-14T12:03:28Z
2023-08-14T10:04:11Z,42.805,6.029,13.3033,4.60126,2470.637,2023-8-14T12:06:31Z
2023-08-14T10:07:14Z,42.805,6.029,13.3036,4.60116,2470.646,2023-8-14T12:09:34Z
2023-08-14T10:10:18Z,42.805,6.029,13.3044,4.60128,2470.67,2023-8-14T12:12:37Z
2023-08-14T10:13:21Z,42.805,6.029,13.3042,4.60129,2470.614,2023-8-14T12:15:40Z
2023-08-14T10:16:24Z,42.805,6.029,13.3039,4.60118,2470.661,2023-8-14T12:18:43Z
2023-08-14T10:19:27Z,42.805,6.029,13.3042,4.60134,2470.646,2023-8-14T12:21:46Z
2023-08-14T10:22:30Z,42.805,6.029,13.3044,4.60132,2470.624,2023-8-14T12:24:49Z
2023-08-14T10:25:33Z,42.805,6.029,13.3038,4.60137,2470.637,2023-8-14T12:27:52Z
2023-08-14T10:28:36Z,42.805,6.029,13.3034,4.60131,2470.646,2023-8-14T12:30:55Z
2023-08-14T10:31:37Z,42.805,6.029,13.3047,4.60135,2470.637,2023-8-14T12:33:57Z
2023-08-14T10:34:40Z,42.805,6.029,13.3043,4.60135,2470.624,2023-8-14T12:37:00Z
2023-08-14T10:37:44Z,42.805,6.029,13.3039,4.60126,2470.624,2023-8-14T12:40:03Z
2023-08-14T10:40:47Z,42.805,6.029,13.3039,4.60131,2470.684,2023-8-14T12:43:06Z
2023-08-14T10:43:50Z,42.805,6.029,13.3038,4.60122,2470.637,2023-8-14T12:46:09Z
2023-08-14T10:46:53Z,42.805,6.029,13.3036,4.60119,2470.624,2023-8-14T12:49:12Z
2023-08-14T10:49:56Z,42.805,6.029,13.3050,4.60154,2470.646,2023-8-14T12:52:15Z
2023-08-14T10:52:59Z,42.805,6.029,13.3043,4.60132,2470.646,2023-8-14T12:55:18Z
2023-08-14T10:56:02Z,42.805,6.029,13.3042,4.60140,2470.624,2023-8-14T12:58:21Z
2023-08-14T10:59:05Z,42.805,6.029,13.3041,4.60143,2470.661,2023-8-14T13:01:24Z
2023-08-14T11:02:08Z,42.805,6.029,13.3046,4.60125,2470.661,2023-8-14T13:04:27Z
2023-08-14T11:05:11Z,42.805,6.029,13.3050,4.60163,2470.646,2023-8-14T13:07:31Z
2023-08-14T11:08:14Z,42.805,6.029,13.3058,4.60151,2470.661,2023-8-14T13:10:34Z
2023-08-14T11:11:17Z,42.805,6.029,13.3058,4.60162,2470.661,2023-8-14T13:13:37Z
2023-08-14T11:14:21Z,42.805,6.029,13.3045,4.60134,2470.67,2023-8-14T13:16:40Z
2023-08-14T11:17:24Z,42.805,6.029,13.3045,4.60158,2470.624,2023-8-14T13:19:43Z
2023-08-14T11:20:27Z,42.805,6.029,13.3039,4.60130,2470.637,2023-8-14T13:22:46Z
2023-08-14T11:23:30Z,42.805,6.029,13.3039,4.60133,2470.646,2023-8-14T13:25:49Z
2023-08-14T11:26:33Z,42.805,6.029,13.3038,4.60130,2470.624,2023-8-14T13:28:52Z
2023-08-14T11:29:36Z,42.805,6.029,13.3036,4.60127,2470.624,2023-8-14T13:31:55Z
2023-08-14T11:32:39Z,42.805,6.029,13.3048,4.60158,2470.661,2023-8-14T13:34:58Z
2023-08-14T11:35:42Z,42.805,6.029,13.3041,4.60141,2470.684,2023-8-14T13:38:01Z
2023-08-14T11:38:45Z,42.805,6.029,13.3041,4.60137,2470.614,2023-8-14T13:41:05Z
2023-08-14T11:41:48Z,42.805,6.029,13.3046,4.60131,2470.6,2023-8-14T13:44:08Z
2023-08-14T11:44:51Z,42.805,6.029,13.3046,4.60152,2470.661,2023-8-14T13:47:11Z
2023-08-14T11:47:55Z,42.805,6.029,13.3056,4.60156,2470.637,2023-8-14T13:50:14Z
2023-08-14T11:50:58Z,42.805,6.029,13.3039,4.60152,2470.624,2023-8-14T13:53:17Z
2023-08-14T11:54:01Z,42.805,6.029,13.3055,4.60164,2470.646,2023-8-14T13:56:20Z
2023-08-14T11:57:04Z,42.805,6.029,13.3076,4.60178,2470.637,2023-8-14T13:59:23Z
2023-08-14T12:00:07Z,42.805,6.029,13.3073,4.60182,2470.624,2023-8-14T14:02:26Z
2023-08-14T12:03:10Z,42.805,6.029,13.3052,4.60190,2470.624,2023-8-14T14:05:29Z
2023-08-14T12:06:13Z,42.805,6.029,13.3059,4.60173,2470.614,2023-8-14T14:08:32Z
2023-08-14T12:09:16Z,42.805,6.029,13.3071,4.60175,2470.637,2023-8-14T14:11:35Z
2023-08-14T12:12:19Z,42.805,6.029,13.3081,4.60161,2470.591,2023-8-14T14:14:38Z
2023-08-14T12:15:22Z,42.805,6.029,13.3056,4.60157,2470.6,2023-8-14T14:17:42Z
2023-08-14T12:18:25Z,42.805,6.029,13.3073,4.60196,2470.6,2023-8-14T14:20:45Z
2023-08-14T12:21:29Z,42.805,6.029,13.3082,4.60176,2470.637,2023-8-14T14:23:48Z
2023-08-14T12:24:32Z,42.805,6.029,13.3093,4.60148,2470.6,2023-8-14T14:26:51Z
2023-08-14T12:27:35Z,42.805,6.029,13.3058,4.60175,2470.6,2023-8-14T14:29:54Z
2023-08-14T12:30:38Z,42.805,6.029,13.3084,4.60194,2470.624,2023-8-14T14:32:57Z
2023-08-14T12:33:41Z,42.805,6.029,13.3084,4.60188,2470.624,2023-8-14T14:36:00Z
2023-08-14T12:36:44Z,42.805,6.029,13.3064,4.60179,2470.6,2023-8-14T14:39:03Z
2023-08-14T12:39:47Z,42.805,6.029,13.3103,4.60180,2470.637,2023-8-14T14:42:06Z
2023-08-14T12:42:50Z,42.805,6.029,13.3113,4.60161,2470.6,2023-8-14T14:45:09Z
2023-08-14T12:45:53Z,42.805,6.029,13.3110,4.60210,2470.6,2023-8-14T14:48:12Z
2023-08-14T12:48:56Z,42.805,6.029,13.3116,4.60151,2470.614,2023-8-14T14:51:16Z
2023-08-14T12:51:59Z,42.805,6.029,13.3094,4.60135,2470.661,2023-8-14T14:54:19Z
2023-08-14T12:55:02Z,42.805,6.029,13.3105,4.60140,2470.646,2023-8-14T14:57:22Z
2023-08-14T12:58:06Z,42.805,6.029,13.3087,4.60132,2470.624,2023-8-14T15:00:25Z
2023-08-14T13:01:09Z,42.805,6.029,13.3057,4.60125,2470.614,2023-8-14T15:03:28Z
2023-08-14T13:04:12Z,42.805,6.029,13.3075,4.60125,2470.637,2023-8-14T15:06:31Z
2023-08-14T13:07:15Z,42.805,6.029,13.3072,4.60131,2470.6,2023-8-14T15:09:34Z
2023-08-14T13:10:18Z,42.805,6.029,13.3072,4.60142,2470.591,2023-8-14T15:12:37Z
2023-08-14T13:13:21Z,42.805,6.029,13.3068,4.60141,2470.6,2023-8-14T15:15:40Z
2023-08-14T13:16:24Z,42.805,6.029,13.3082,4.60150,2470.624,2023-8-14T15:18:43Z
2023-08-14T13:19:27Z,42.805,6.029,13.3070,4.60111,2470.624,2023-8-14T15:21:46Z
2023-08-14T13:22:30Z,42.805,6.029,13.3083,4.60144,2470.614,2023-8-14T15:24:50Z
2023-08-14T13:25:33Z,42.805,6.029,13.3078,4.60125,2470.624,2023-8-14T15:27:53Z
2023-08-14T13:28:36Z,42.805,6.029,13.3075,4.60141,2470.624,2023-8-14T15:30:56Z
2023-08-14T13:31:40Z,42.805,6.029,13.3056,4.60122,2470.646,2023-8-14T15:33:59Z
2023-08-14T13:34:43Z,42.805,6.029,13.3062,4.60135,2470.6,2023-8-14T15:37:02Z
2023-08-14T13:37:46Z,42.805,6.029,13.3079,4.60127,2470.624,2023-8-14T15:40:05Z
2023-08-14T13:40:49Z,42.805,6.029,13.3068,4.60110,2470.661,2023-8-14T15:43:08Z
2023-08-14T13:43:52Z,42.805,6.029,13.3048,4.60137,2470.614,2023-8-14T15:46:11Z
2023-08-14T13:46:55Z,42.805,6.029,13.3070,4.60116,2470.637,2023-8-14T15:49:14Z
2023-08-14T13:49:58Z,42.805,6.029,13.3103,4.60129,2470.637,2023-8-14T15:52:17Z
2023-08-14T13:53:01Z,42.805,6.029,13.3075,4.60125,2470.624,2023-8-14T15:55:20Z
2023-08-14T13:56:04Z,42.805,6.029,13.3072,4.60126,2470.637,2023-8-14T15:58:24Z
2023-08-14T13:59:07Z,42.805,6.029,13.3087,4.60144,2470.661,2023-8-14T16:01:27Z
2023-08-14T14:02:10Z,42.805,6.029,13.3082,4.60131,2470.637,2023-8-14T16:04:30Z
2023-08-14T14:05:14Z,42.805,6.029,13.3070,4.60132,2470.624,2023-8-14T16:07:33Z
2023-08-14T14:08:17Z,42.805,6.029,13.3073,4.60123,2470.684,2023-8-14T16:10:36Z
2023-08-14T14:11:20Z,42.805,6.029,13.3089,4.60131,2470.661,2023-8-14T16:13:39Z
2023-08-14T14:14:23Z,42.805,6.029,13.3078,4.60119,2470.67,2023-8-14T16:16:42Z
2023-08-14T14:17:26Z,42.805,6.029,13.3086,4.60130,2470.646,2023-8-14T16:19:45Z
2023-08-14T14:20:29Z,42.805,6.029,13.3101,4.60123,2470.646,2023-8-14T16:22:48Z
2023-08-14T14:23:32Z,42.805,6.029,13.3104,4.60125,2470.646,2023-8-14T16:25:51Z
2023-08-14T14:26:35Z,42.805,6.029,13.3082,4.60125,2470.661,2023-8-14T16:28:54Z
2023-08-14T14:29:38Z,42.805,6.029,13.3067,4.60141,2470.684,2023-8-14T16:31:57Z
2023-08-14T14:32:40Z,42.805,6.029,13.3086,4.60129,2470.67,2023-8-14T16:34:59Z
2023-08-14T14:35:43Z,42.805,6.029,13.3082,4.60127,2470.684,2023-8-14T16:38:02Z
2023-08-14T14:38:46Z,42.805,6.029,13.3127,4.60139,2470.67,2023-8-14T16:41:05Z
2023-08-14T14:41:49Z,42.805,6.029,13.3104,4.60125,2470.707,2023-8-14T16:44:09Z
2023-08-14T14:44:52Z,42.805,6.029,13.3074,4.60152,2470.684,2023-8-14T16:47:12Z
2023-08-14T14:47:55Z,42.805,6.029,13.3079,4.60152,2470.684,2023-8-14T16:50:15Z
2023-08-14T14:50:59Z,42.805,6.029,13.3047,4.60144,2470.707,2023-8-14T16:53:18Z
2023-08-14T14:54:02Z,42.805,6.029,13.3032,4.60145,2470.684,2023-8-14T16:56:21Z
2023-08-14T14:57:05Z,42.805,6.029,13.3046,4.60134,2470.717,2023-8-14T16:59:24Z
2023-08-14T15:00:08Z,42.805,6.029,13.3033,4.60144,2470.67,2023-8-14T17:02:27Z
2023-08-14T15:03:11Z,42.805,6.029,13.3032,4.60138,2470.67,2023-8-14T17:05:30Z
2023-08-14T15:06:14Z,42.805,6.029,13.3029,4.60119,2470.707,2023-8-14T17:08:33Z
2023-08-14T15:09:17Z,42.805,6.029,13.3033,4.60110,2470.707,2023-8-14T17:11:36Z
2023-08-14T15:12:20Z,42.805,6.029,13.3026,4.60104,2470.717,2023-8-14T17:14:39Z